North Conway, NH

11:21 PM EST on November 19, 2019 (GMT -0500)
North Conway

Weather History for KCWN - October, 2019

Change the Weather History Date:

Monday, October 21, 2019

  Actual Average (KIZG) Record (KIZG)
Temperature  
Mean Temperature 39 °F -  
Max Temperature 46 °F 54 °F 73 °F (2000)
Min Temperature 32 °F 30 °F 21 °F (2002)
Degree Days  
Heating Degree Days 26    
Moisture  
Dew Point 4 °F    
Average Humidity 24    
Maximum Humidity 30    
Minimum Humidity 15    
Precipitation  
Precipitation 0.00 in - - ()
Sea Level Pressure  
Sea Level Pressure 29.64 in    
Wind  
Wind Speed 5 mph (SW)    
Max Wind Speed 14 mph    
Max Gust Speed 21 mph    
Visibility 10 miles    
Events      
Averages and records for this station are not official NWS values.
T = Trace of Precipitation, MM = Missing Value Source: NWS Daily Summary

Daily Weather History Graph

Daily Weather History Graph

Search for Another Location

Airport or City:

Astronomy

Oct. 21, 2019 Rise Set
Actual Time 7:06 AM EDT 5:51 PM EDT
Civil Twilight 6:37 AM EDT 6:20 PM EDT
Nautical Twilight 6:03 AM EDT 6:54 PM EDT
Astronomical Twilight 5:30 AM EDT 7:27 PM EDT
Moon 11:56 PM EDT (10/21) 2:29 PM EDT (10/21)
Length of Visible Light 11h 43m
Length of Day
10h 44m
Waning Gibbous, 48% of the Moon is Illuminated
Oct 21
Waning Gibbous
Oct 27
New
Nov 4
First Quarter
Nov 12
Full
Nov 19
Last Quarter

Hourly Weather History & Observations

Time (EDT) Temp. Windchill Dew Point Humidity Pressure Visibility Wind Dir Wind Speed Gust Speed Precip Events Conditions
12:58 AM 37.4 °F - -2.2 °F 19% 29.57 in 10.0 mi Calm Calm - N/A   Clear
1:58 AM 38.5 °F 34.1 °F -5.4 °F 15% 29.56 in 10.0 mi WNW 5.8 mph - N/A   Clear
2:58 AM 36.1 °F 32.3 °F -2.0 °F 20% 29.55 in 10.0 mi WNW 4.6 mph - N/A   Clear
3:58 AM 32.9 °F 28.5 °F 2.5 °F 28% 29.55 in 10.0 mi SSW 4.6 mph - N/A   Clear
5:58 AM 32.4 °F - 0.9 °F 26% 29.58 in 10.0 mi Calm Calm - N/A   Clear
6:58 AM 33.1 °F 25.5 °F 2.8 °F 28% 29.56 in 10.0 mi WNW 9.2 mph - N/A   Clear
7:58 AM 33.6 °F 27.5 °F 3.0 °F 27% 29.57 in 10.0 mi WNW 6.9 mph - N/A   Clear
8:58 AM 32.5 °F 28.1 °F 3.2 °F 29% 29.58 in 10.0 mi SSE 4.6 mph - N/A   Clear
9:58 AM 34.9 °F 25.7 °F 2.5 °F 26% 29.58 in 10.0 mi South 13.8 mph - N/A   Scattered Clouds
10:58 AM 35.6 °F 28.6 °F 3.9 °F 26% 29.63 in 10.0 mi South 9.2 mph - N/A   Mostly Cloudy
11:58 AM 39.4 °F 32.7 °F 6.1 °F 25% 29.65 in 10.0 mi SSE 10.4 mph - N/A   Clear
12:58 PM 39.2 °F 35.9 °F 5.7 °F 25% 29.66 in 10.0 mi SSE 4.6 mph - N/A   Mostly Cloudy
1:58 PM 42.4 °F 35.7 °F 5.2 °F 21% 29.62 in 10.0 mi SSE 12.7 mph - N/A   Mostly Cloudy
2:58 PM 44.2 °F 41.8 °F 5.9 °F 21% 29.62 in 10.0 mi ENE 4.6 mph - N/A   Scattered Clouds
3:58 PM 46.0 °F 43.1 °F 5.4 °F 19% 29.62 in 10.0 mi NE 5.8 mph 20.7 mph N/A   Mostly Cloudy
4:58 PM 44.8 °F 40.4 °F 6.8 °F 21% 29.65 in 10.0 mi NNE 8.1 mph - N/A   Overcast
5:58 PM 45.5 °F 44.2 °F 8.2 °F 22% 29.67 in 10.0 mi NNE 3.5 mph - N/A   Mostly Cloudy
6:58 PM 44.1 °F 38.6 °F 9.3 °F 24% 29.70 in 10.0 mi North 10.4 mph - N/A   Mostly Cloudy
7:58 PM 43.0 °F 37.2 °F 5.9 °F 22% 29.75 in 10.0 mi NNW 10.4 mph - N/A   Partly Cloudy
8:58 PM 41.4 °F - 7.2 °F 24% 29.79 in 10.0 mi Calm Calm - N/A   Clear
9:58 PM 39.6 °F 34.7 °F 9.7 °F 29% 29.81 in 10.0 mi South 6.9 mph - N/A   Clear
11:58 PM 38.3 °F 35.9 °F 9.1 °F 30% 29.84 in 10.0 mi SW 3.5 mph - N/A   Clear